Location: Baltimore
(39.2900°N, 76.6130°W)
Time: 09:27:35
(UTC-05:00)

ISS - Visible Passes

Search period start: 08 December 2025 00:00
Search period end: 18 December 2025 00:00
Orbit: 416 x 421 km, 51.6° (Epoch: 07 December)

Date Brightness Start Highest point End Pass type
(mag) Time Alt. Az. Time Alt. Az. Time Alt. Az.
10 Dec -0.6 06:36:16 10° S 06:38:46 20° SE 06:41:17 10° E visible
11 Dec -0.2 05:50:03 10° SE 05:51:04 11° SE 05:52:07 10° ESE visible
12 Dec -3.1 06:36:12 10° SW 06:39:31 61° SE 06:42:51 10° ENE visible
13 Dec -2.0 05:48:36 10° SSW 05:51:40 33° SE 05:54:44 10° ENE visible
14 Dec -1.2 05:02:37 16° SSE 05:03:50 19° SE 05:06:18 10° E visible
14 Dec -3.4 06:37:08 10° WSW 06:40:23 45° NNW 06:43:39 10° NE visible
15 Dec -3.9 05:50:55 31° WSW 05:52:22 78° NW 05:55:45 10° NE visible
16 Dec -2.0 05:05:46 31° ENE 05:05:46 31° ENE 05:07:42 10° ENE visible
16 Dec -2.3 06:38:45 10° WNW 06:41:23 21° NNW 06:44:04 10° NNE visible
17 Dec -2.8 05:53:17 30° NNW 05:53:17 30° NNW 05:56:14 10° NE visible
